• Processing (Info)

  • MPEC 2023-C122 : 2013 RE74 = 2022 RH23

    The following Minor Planet Electronic Circular may be linked-to from your own Web pages, but must not otherwise be redistributed electronically.

    A form allowing access to any MPEC is at the bottom of this page.


    Read MPEC 2023-C121 Read MPEC 2023-C123


    M.P.E.C. 2023-C122                            Issued 2023 February 13, 18:12 UT
    
         The Minor Planet Electronic Circulars contain information on unusual
             minor planets, routine data on comets and natural satellites,
             and occasional editorial announcements.  They are published
        on behalf of Division F of the International Astronomical Union by the
              Minor Planet Center, Smithsonian Astrophysical Observatory,
                              Cambridge, MA 02138, U.S.A.
    			  
                 Prepared using the Tamkin Foundation Computer Network
    
                                  MPC@CFA.HARVARD.EDU
                URL https://www.minorplanetcenter.net/    ISSN 1523-6714
    
                              2013 RE74 = 2022 RH23                          
    
                             Revision to MPEC 2022-S319
    
    Orbital elements:
    2013 RE74 = 2022 RH23                                    Earth MOID = 0.4406 AU
    Id. P. VanWylen
    Epoch 2023 Feb. 25.0 TT = JDT 2460000.5                 Veres                   
    M 113.82106              (2000.0)            P               Q                  
    n   0.43803634     Peri.  277.67121     +0.27205441     +0.95750504             
    a   1.7171015      Node     9.85240     -0.50084188     +0.22586892             
    e   0.2909690      Incl.   34.03187     -0.82167135     +0.17935255             
    P   2.25           H   21.18          G   0.15           U   1                  
    Residuals in seconds of arc
    130914 F51  0.0   0.0     220917 G96  0.6-  0.1-    220928 I52  0.6-  0.7-
    130914 F51  0.0   0.2-    220917 G96  0.3-  0.1+    220928 I52  0.5-  0.0
    130914 F51  0.0   0.4-    220927 F51  0.1-  0.2-    221014 V06  0.6-  0.3+
    130914 F51  0.1+  0.4-    220927 F51  0.0   0.1-    221014 V06  0.6+  0.4+
    130914 F51  0.1+  0.3-    220927 F51  0.1+  0.1-    221014 V06  0.7-  0.5-
    130915 H21  0.7+  0.0     220927 F52  0.1-  0.2-    221017 G96  0.1+  0.3-
    130915 H21  0.7+  0.3+    220927 F52  0.1-  0.0     221017 G96  0.6-  0.4+
    130915 H21  0.2+  0.0     220928 H21  0.4-  0.0     221017 G96  0.1+  0.1+
    220905 F51  0.2+  0.0     220928 H21  0.1-  0.3+    221017 G96  0.8-  0.0
    220905 F51  0.1+  0.1+    220928 H21  0.1-  0.2-
    220905 F51  0.1-  0.2+    220928 I52  0.4-  0.4-
    
    Ephemeris:
    2013 RE74                a,e,i = 1.72, 0.29, 34                  q = 1.2175
    Date    TT    R. A. (2000) Decl.     Delta      r    Elong.  Phase     V
    2023 01 14    00 11 06.2 +28 07 52   1.7633  1.8960    82.0    30.9    25.1
    ...
    2023 01 29    00 35 44.7 +30 43 30   1.9655  1.9428    74.1    29.2    25.4
    ...
    2023 02 06    00 50 01.7 +32 08 12   2.0689  1.9665    70.1    28.1    25.5
    ...
    2023 02 12    01 01 13.3 +33 12 01   2.1442  1.9835    67.2    27.3    25.5
    2023 02 13    01 03 07.6 +33 22 40   2.1565  1.9863    66.8    27.2    25.6
    2023 02 14    01 05 02.5 +33 33 18   2.1688  1.9891    66.3    27.0    25.6
    ...
    2023 02 20    01 16 46.5 +34 37 02   2.2411  2.0054    63.5    26.2    25.6
    ...
    2023 02 28    01 33 02.2 +36 01 27   2.3339  2.0262    59.8    25.0    25.7
    ...
    2023 03 15    02 05 22.8 +38 35 07   2.4954  2.0626    53.4    22.8    25.8
    
    M. P. C. Staff               (C) Copyright 2023 MPC           M.P.E.C. 2023-C122
    


    Read MPEC 2023-C121 Read MPEC 2023-C123


    MPEC number:

    Enter an MPEC number in one of the following forms:

    • 1997-B01 (the full form)
    • J97B01 (the packed version of the full form)
    • B01 (the abbreviated form)